When you browse on this site, cookies collect data to enhance your experience and personalize the content and advertising you see.
Visit our Privacy Policy to learn more. By continuing to use the site, you agree to this use of cookies and data.
  • în România
  • Lista ţărilor
  • Pe 7 zile
  • Temperatura apei
  • Meteo pe hartă
  • Widget-uri
  • user-avatar
    Intrare

    Meteo pe oră la Fria

    Astăzi, 20 Noiembrie, Miercuri

    Timp Temperatura Precipitaţii Vânt Presiune Umiditate
    00:00 +24°C° 0 mm 0 m/s 752 mmHg 92%
    01:00 +24°C° 0 mm 0 m/s 752 mmHg 92%
    02:00 +24°C° 0 mm 0 m/s 751 mmHg 93%
    03:00 +23°C° 0 mm 0 m/s 751 mmHg 94%
    04:00 +25°C° 0 mm 1 m/s 751 mmHg 94%
    05:00 +25°C° 0 mm 1 m/s 752 mmHg 95%
    06:00 +26°C° 0 mm 1 m/s 752 mmHg 88%
    07:00 +26°C° 0 mm 0 m/s 753 mmHg 82%
    08:00 +28°C° 0 mm 0 m/s 753 mmHg 75%
    09:00 +30°C° 0 mm 0 m/s 753 mmHg 66%
    10:00 +32°C° 0 mm 0 m/s 753 mmHg 57%
    11:00 +34°C° 0 mm 0 m/s 752 mmHg 48%
    12:00 +34°C° 0 mm 0 m/s 752 mmHg 45%
    13:00 +35°C° 0 mm 0 m/s 751 mmHg 42%
    14:00 +35°C° 0 mm 0 m/s 751 mmHg 39%
    15:00 +35°C° 0 mm 1 m/s 751 mmHg 49%
    16:00 +33°C° 0 mm 1 m/s 751 mmHg 58%
    17:00 +30°C° 0 mm 2 m/s 751 mmHg 68%
    18:00 +29°C° 0 mm 1 m/s 751 mmHg 74%
    19:00 +28°C° 0 mm 1 m/s 752 mmHg 81%
    20:00 +25°C° 0 mm 0 m/s 753 mmHg 88%
    21:00 +25°C° 0 mm 0 m/s 753 mmHg 89%
    22:00 +24°C° 0 mm 0 m/s 752 mmHg 91%
    23:00 +24°C° 0 mm 0 m/s 752 mmHg 92%

    Mâine, 21 Noiembrie, Joi

    Timp Temperatura Precipitaţii Vânt Presiune Umiditate
    00:00 +24°C° 0 mm 0 m/s 752 mmHg 93%
    01:00 +24°C° 0 mm 0 m/s 752 mmHg 93%
    02:00 +23°C° 0 mm 0 m/s 752 mmHg 94%
    03:00 +23°C° 0 mm 0 m/s 752 mmHg 95%
    04:00 +23°C° 0 mm 0 m/s 752 mmHg 95%
    05:00 +23°C° 0 mm 0 m/s 752 mmHg 96%
    06:00 +24°C° 0 mm 0 m/s 752 mmHg 90%
    07:00 +26°C° 0 mm 0 m/s 753 mmHg 85%
    08:00 +27°C° 0 mm 0 m/s 753 mmHg 79%
    09:00 +29°C° 0 mm 0 m/s 753 mmHg 70%
    10:00 +31°C° 0 mm 0 m/s 753 mmHg 62%
    11:00 +34°C° 0 mm 0 m/s 753 mmHg 53%
    12:00 +36°C° 0 mm 1 m/s 752 mmHg 50%
    13:00 +36°C° 0 mm 1 m/s 752 mmHg 47%
    14:00 +36°C° 0 mm 1 m/s 751 mmHg 45%
    15:00 +34°C° 0 mm 1 m/s 751 mmHg 55%
    16:00 +32°C° 0 mm 2 m/s 751 mmHg 65%
    17:00 +30°C° 0 mm 3 m/s 751 mmHg 76%
    18:00 +29°C° 0 mm 2 m/s 751 mmHg 80%
    19:00 +28°C° 0 mm 1 m/s 752 mmHg 85%
    20:00 +25°C° 0 mm 0 m/s 752 mmHg 90%
    21:00 +25°C° 0 mm 0 m/s 752 mmHg 91%
    22:00 +24°C° 0 mm 0 m/s 752 mmHg 92%
    23:00 +24°C° 0 mm 0 m/s 752 mmHg 93%

    Poimâine, 22 Noiembrie, Vineri

    Timp Temperatura Precipitaţii Vânt Presiune Umiditate
    00:00 +24°C° 0 mm 0 m/s 752 mmHg 94%
    01:00 +23°C° 0 mm 0 m/s 752 mmHg 94%
    02:00 +23°C° 0 mm 0 m/s 752 mmHg 95%
    03:00 +23°C° 0 mm 0 m/s 752 mmHg 96%
    04:00 +25°C° 0 mm 1 m/s 752 mmHg 96%
    05:00 +25°C° 0 mm 1 m/s 752 mmHg 97%
    06:00 +26°C° 0 mm 1 m/s 752 mmHg 91%
    07:00 +26°C° 0 mm 0 m/s 753 mmHg 85%
    08:00 +27°C° 0 mm 0 m/s 753 mmHg 79%
    09:00 +29°C° 0 mm 0 m/s 753 mmHg 70%
    10:00 +31°C° 0 mm 0 m/s 753 mmHg 62%
    11:00 +35°C° 0 mm 1 m/s 753 mmHg 53%
    12:00 +36°C° 0 mm 1 m/s 752 mmHg 50%
    13:00 +36°C° 0 mm 1 m/s 751 mmHg 47%
    14:00 +36°C° 0 mm 1 m/s 751 mmHg 43%
    15:00 +34°C° 0 mm 1 m/s 751 mmHg 52%
    16:00 +32°C° 0 mm 2 m/s 750 mmHg 61%
    17:00 +30°C° 0 mm 2 m/s 750 mmHg 70%
    18:00 +29°C° 0 mm 2 m/s 751 mmHg 76%
    19:00 +28°C° 0 mm 1 m/s 752 mmHg 83%
    20:00 +27°C° 0 mm 1 m/s 752 mmHg 89%
    21:00 +24°C° 0 mm 0 m/s 752 mmHg 90%
    22:00 +24°C° 0 mm 0 m/s 752 mmHg 91%
    23:00 +24°C° 0 mm 0 m/s 752 mmHg 93%

    23 Noiembrie, Sâmbătă

    Timp Temperatura Precipitaţii Vânt Presiune Umiditate
    00:00 +24°C° 0 mm 0 m/s 752 mmHg 94%
    01:00 +23°C° 0 mm 0 m/s 751 mmHg 95%
    02:00 +23°C° 0 mm 0 m/s 751 mmHg 96%
    03:00 +23°C° 0 mm 0 m/s 751 mmHg 96%
    04:00 +23°C° 0 mm 0 m/s 751 mmHg 96%
    05:00 +22°C° 0 mm 0 m/s 751 mmHg 97%
    06:00 +24°C° 0 mm 0 m/s 752 mmHg 91%
    07:00 +27°C° 0 mm 1 m/s 752 mmHg 86%
    08:00 +28°C° 0 mm 1 m/s 753 mmHg 81%
    09:00 +31°C° 0 mm 1 m/s 753 mmHg 72%
    10:00 +31°C° 0 mm 0 m/s 752 mmHg 63%
    11:00 +34°C° 0 mm 0 m/s 752 mmHg 54%
    12:00 +34°C° 0 mm 0 m/s 752 mmHg 51%
    13:00 +36°C° 0 mm 1 m/s 751 mmHg 48%
    14:00 +36°C° 0 mm 1 m/s 750 mmHg 45%
    15:00 +35°C° 0 mm 2 m/s 750 mmHg 55%
    16:00 +32°C° 0 mm 2 m/s 750 mmHg 64%
    17:00 +30°C° 0 mm 3 m/s 750 mmHg 74%
    18:00 +29°C° 0 mm 2 m/s 751 mmHg 79%
    19:00 +28°C° 0 mm 1 m/s 751 mmHg 84%
    20:00 +27°C° 0 mm 1 m/s 752 mmHg 89%
    21:00 +24°C° 0 mm 0 m/s 752 mmHg 90%
    22:00 +24°C° 0 mm 0 m/s 752 mmHg 91%
    23:00 +24°C° 0 mm 0 m/s 752 mmHg 93%

    24 Noiembrie, Duminică

    Timp Temperatura Precipitaţii Vânt Presiune Umiditate
    00:00 +23°C° 0 mm 0 m/s 752 mmHg 94%
    01:00 +23°C° 0 mm 0 m/s 752 mmHg 95%
    02:00 +23°C° 0 mm 0 m/s 751 mmHg 96%
    03:00 +23°C° 0 mm 0 m/s 751 mmHg 96%
    04:00 +23°C° 0 mm 0 m/s 751 mmHg 96%
    05:00 +23°C° 0 mm 0 m/s 751 mmHg 97%
    06:00 +23°C° 0 mm 0 m/s 752 mmHg 93%
    07:00 +24°C° 0 mm 0 m/s 752 mmHg 90%
    08:00 +27°C° 0 mm 1 m/s 753 mmHg 86%
    09:00 +29°C° 0 mm 1 m/s 753 mmHg 80%
    10:00 +28°C° 0 mm 0 m/s 752 mmHg 73%
    11:00 +30°C° 0 mm 0 m/s 752 mmHg 66%
    12:00 +31°C° 0 mm 0 m/s 752 mmHg 62%
    13:00 +31°C° 0 mm 0 m/s 751 mmHg 59%
    14:00 +32°C° 0 mm 0 m/s 750 mmHg 55%
    15:00 +33°C° 0 mm 1 m/s 750 mmHg 59%
    16:00 +32°C° 0 mm 1 m/s 750 mmHg 63%
    17:00 +31°C° 0 mm 1 m/s 750 mmHg 67%
    18:00 +29°C° 0 mm 1 m/s 751 mmHg 74%
    19:00 +28°C° 0 mm 1 m/s 751 mmHg 80%
    20:00 +26°C° 0 mm 1 m/s 752 mmHg 86%
    21:00 +24°C° 0 mm 0 m/s 752 mmHg 88%
    22:00 +24°C° 0 mm 0 m/s 752 mmHg 90%
    23:00 +24°C° 0 mm 0 m/s 752 mmHg 91%

    25 Noiembrie, Luni

    Timp Temperatura Precipitaţii Vânt Presiune Umiditate
    00:00 +23°C° 0 mm 0 m/s 752 mmHg 92%
    01:00 +23°C° 0 mm 0 m/s 751 mmHg 93%
    02:00 +23°C° 0 mm 0 m/s 751 mmHg 95%
    03:00 +23°C° 0 mm 0 m/s 751 mmHg 95%
    04:00 +23°C° 0 mm 0 m/s 751 mmHg 96%
    05:00 +22°C° 0 mm 0 m/s 751 mmHg 96%
    06:00 +24°C° 0 mm 0 m/s 751 mmHg 91%
    07:00 +25°C° 0 mm 0 m/s 752 mmHg 86%
    08:00 +28°C° 0 mm 1 m/s 753 mmHg 81%
    09:00 +29°C° 0 mm 1 m/s 752 mmHg 78%
    10:00 +28°C° 0 mm 0 m/s 752 mmHg 74%
    11:00 +29°C° 0 mm 0 m/s 752 mmHg 71%
    12:00 +30°C° 0 mm 0 m/s 751 mmHg 67%
    13:00 +32°C° 0 mm 1 m/s 751 mmHg 63%
    14:00 +33°C° 0 mm 1 m/s 750 mmHg 60%
    15:00 +32°C° 0 mm 1 m/s 750 mmHg 64%
    16:00 +31°C° 0 mm 1 m/s 750 mmHg 68%
    17:00 +30°C° 0 mm 2 m/s 750 mmHg 71%
    18:00 +29°C° 0 mm 1 m/s 751 mmHg 77%
    19:00 +28°C° 0 mm 1 m/s 751 mmHg 82%
    20:00 +26°C° 0 mm 1 m/s 752 mmHg 88%
    21:00 +24°C° 0 mm 0 m/s 752 mmHg 89%
    22:00 +24°C° 0 mm 0 m/s 752 mmHg 91%
    23:00 +24°C° 0 mm 0 m/s 752 mmHg 92%
    Arată mai mult